Crumpler, NC

6:32 PM EST on February 27, 2017 (GMT -0500)
Ashe County

Weather History for KGEV - January, 2004

Change the Weather History Date:

Monday, January 26, 2004

  Actual Average Record
Temperature  
Mean Temperature 22 °F -  
Max Temperature 28 °F 42 °F 65 °F (1989)
Min Temperature 15 °F 20 °F 7 °F (1968)
Degree Days  
Heating Degree Days 44    
Moisture  
Dew Point 20 °F    
Average Humidity 93    
Maximum Humidity 100    
Minimum Humidity 86    
Precipitation  
Precipitation 0.01 in - - ()
Sea Level Pressure  
Sea Level Pressure 29.92 in    
Wind  
Wind Speed 1 mph (South)    
Max Wind Speed 6 mph    
Max Gust Speed -    
Visibility 2 miles    
Events Fog    
Averages and records for this station are not official NWS values.
T = Trace of Precipitation, MM = Missing Value Source: NWS Daily Summary

Daily Weather History Graph

Daily Weather History Graph

Search for Another Location

Airport or City:

Trip Planner

Search our weather history database for the weather conditions in past years. The results will help you decide how hot, cold, wet, or windy it might be!

Date:

Astronomy

Jan. 26, 2004 Rise Set
Actual Time 7:31 AM EST 5:44 PM EST
Civil Twilight 7:04 AM EST 6:12 PM EST
Nautical Twilight 6:33 AM EST 6:43 PM EST
Astronomical Twilight 6:02 AM EST 7:14 PM EST
Moon 10:36 AM EST (1/26) 11:03 PM EST (1/26)
Length of Visible Light 11h 08m
Length of Day
10h 13m
Waxing Crescent, 26% of the Moon is Illuminated
Jan 26
Waxing Crescent
Jan 29
First Quarter
Feb 6
Full
Feb 13
Last Quarter
Feb 20
New

Hourly Weather History & Observations

Time (EST) Temp. Windchill Dew Point Humidity Pressure Visibility Wind Dir Wind Speed Gust Speed Precip Events Conditions
12:00 AM 15.8 °F 7.2 °F 12.2 °F 86% 29.93 in 2.5 mi South 5.8 mph - N/A   Overcast
12:20 AM 17.6 °F 12.3 °F 15.8 °F 93% 29.92 in 4.0 mi SSE 3.5 mph - N/A   Overcast
12:40 AM 17.6 °F 10.7 °F 15.8 °F 93% 29.92 in 4.0 mi South 4.6 mph - N/A   Overcast
1:00 AM 17.6 °F - 15.8 °F 93% 29.91 in 4.0 mi Calm Calm - N/A   Overcast
1:20 AM 17.6 °F - 15.8 °F 93% 29.91 in 3.0 mi Calm Calm - N/A   Overcast
1:41 AM 17.6 °F - 14.0 °F 86% 29.91 in 1.5 mi Calm Calm - N/A   Overcast
2:01 AM 17.6 °F - 15.8 °F 93% 29.91 in 1.5 mi Calm Calm - N/A   Overcast
2:20 AM 17.6 °F - 15.8 °F 93% 29.91 in 0.8 mi Calm Calm - N/A   Overcast
2:40 AM 17.6 °F - 15.8 °F 93% 29.91 in 1.0 mi Calm Calm - N/A   Overcast
3:00 AM 17.6 °F - 15.8 °F 93% 29.91 in 1.0 mi Calm Calm - N/A   Overcast
3:20 AM 17.6 °F - 15.8 °F 93% 29.91 in 0.8 mi Calm Calm - N/A   Overcast
3:40 AM 17.6 °F - 15.8 °F 93% 29.90 in 0.5 mi Calm Calm - N/A Fog Light Freezing Fog
4:00 AM 17.6 °F - 15.8 °F 93% 29.90 in 0.8 mi Calm Calm - N/A   Overcast
4:20 AM 17.6 °F - 15.8 °F 93% 29.91 in 0.2 mi Calm Calm - N/A Fog Light Freezing Fog
4:40 AM 17.6 °F - 15.8 °F 93% 29.91 in 0.5 mi Calm Calm - N/A Fog Light Freezing Fog
5:00 AM 17.6 °F - 15.8 °F 93% 29.92 in 0.2 mi Calm Calm - N/A Fog Light Freezing Fog
5:21 AM 17.6 °F - 15.8 °F 93% 29.91 in 0.2 mi Calm Calm - N/A Fog Light Freezing Fog
5:40 AM 17.6 °F - 15.8 °F 93% 29.91 in 0.2 mi Calm Calm - N/A Fog Light Freezing Fog
6:00 AM 17.6 °F - 15.8 °F 93% 29.93 in 0.5 mi Calm Calm - N/A Fog Light Freezing Fog
6:20 AM 17.6 °F - 15.8 °F 93% 29.92 in 5.0 mi Calm Calm - N/A   Overcast
6:40 AM 17.6 °F - 15.8 °F 93% 29.93 in 0.5 mi Calm Calm - N/A Fog Light Freezing Fog
7:00 AM 17.6 °F - 15.8 °F 93% 29.94 in 0.5 mi Calm Calm - N/A   Overcast
7:21 AM 17.6 °F - 15.8 °F 93% 29.93 in 0.2 mi Calm Calm - N/A Fog Light Freezing Fog
7:40 AM 17.6 °F - 15.8 °F 93% 29.94 in 0.2 mi Calm Calm - N/A Fog Light Freezing Fog
8:00 AM 17.6 °F - 15.8 °F 93% 29.94 in 4.0 mi Calm Calm - N/A   Overcast
8:20 AM 17.6 °F - 15.8 °F 93% 29.95 in 5.0 mi Calm Calm - N/A   Overcast
8:41 AM 19.4 °F - 15.8 °F 86% 29.94 in 5.0 mi Calm Calm - N/A   Overcast
9:00 AM 19.4 °F - 17.6 °F 93% 29.95 in 7.0 mi Calm Calm - N/A   Mostly Cloudy
9:20 AM 19.4 °F - 17.6 °F 93% 29.96 in 5.0 mi Calm Calm - N/A   Scattered Clouds
9:40 AM 19.4 °F - 17.6 °F 93% 29.93 in 7.0 mi Calm Calm - N/A   Mostly Cloudy
10:00 AM 19.4 °F - 17.6 °F 93% 29.93 in 7.0 mi Calm Calm - N/A   Overcast
10:20 AM 21.2 °F - 19.4 °F 93% 29.94 in 7.0 mi Calm Calm - N/A   Overcast
10:40 AM 21.2 °F - 19.4 °F 93% 29.94 in 2.5 mi Calm Calm - N/A   Overcast
11:00 AM 23.0 °F - 21.2 °F 93% 29.94 in 5.0 mi Calm Calm - N/A   Overcast
11:20 AM 23.0 °F - 21.2 °F 93% 29.94 in 7.0 mi Calm Calm - N/A   Overcast
11:40 AM 23.0 °F 18.4 °F 21.2 °F 93% 29.96 in 5.0 mi South 3.5 mph - N/A   Overcast
12:00 PM 23.0 °F - 21.2 °F 93% 29.94 in 2.5 mi Calm Calm - N/A   Overcast
12:20 PM 24.8 °F - 23.0 °F 93% 29.93 in 7.0 mi Calm Calm - N/A   Overcast
12:40 PM 24.8 °F - 23.0 °F 93% 29.92 in 5.0 mi Calm Calm - N/A   Overcast
1:00 PM 24.8 °F - 23.0 °F 93% 29.90 in 4.0 mi Calm Calm - N/A   Overcast
1:20 PM 24.8 °F - 23.0 °F 93% 29.90 in 5.0 mi Calm Calm - 0.01 in   Overcast
1:41 PM 26.6 °F - 24.8 °F 93% 29.89 in 1.0 mi Calm Calm - 0.01 in   Overcast
2:01 PM 26.6 °F 22.6 °F 24.8 °F 93% 29.89 in 0.2 mi South 3.5 mph - N/A Fog Light Freezing Fog
2:20 PM 24.8 °F 20.5 °F 23.0 °F 93% 29.88 in 0.2 mi SSE 3.5 mph - N/A Fog Light Freezing Fog
2:40 PM 24.8 °F 20.5 °F 23.0 °F 93% 29.88 in 0.2 mi SSE 3.5 mph - N/A Fog Light Freezing Fog
3:00 PM 24.8 °F 19.1 °F 23.0 °F 93% 29.89 in 0.2 mi South 4.6 mph - N/A Fog Light Freezing Fog
3:20 PM 24.8 °F - 23.0 °F 93% 29.89 in 0.2 mi Calm Calm - N/A Fog Light Freezing Fog
3:40 PM 24.8 °F - 23.0 °F 93% 29.88 in 0.2 mi Calm Calm - N/A Fog Light Freezing Fog
4:00 PM 26.6 °F - 24.8 °F 93% 29.89 in 0.2 mi Calm Calm - N/A Fog Light Freezing Fog
4:20 PM 26.6 °F - 24.8 °F 93% 29.89 in 0.2 mi Calm Calm - N/A Fog Light Freezing Fog
4:41 PM 26.6 °F - 24.8 °F 93% 29.89 in 0.2 mi Calm Calm - N/A Fog Light Freezing Fog
5:00 PM 26.6 °F - 26.6 °F 100% 29.89 in 0.2 mi Calm Calm - N/A Fog Light Freezing Fog
5:20 PM 26.6 °F - 26.6 °F 100% 29.89 in 0.2 mi Calm Calm - N/A Fog Light Freezing Fog
5:40 PM 26.6 °F - 26.6 °F 100% 29.90 in 0.2 mi Calm Calm - N/A Fog Light Freezing Fog
6:00 PM 26.6 °F - 26.6 °F 100% 29.91 in 0.5 mi Calm Calm - N/A Fog Light Freezing Fog
6:21 PM 26.6 °F - 26.6 °F 100% 29.91 in 0.5 mi Calm Calm - N/A Fog Light Freezing Fog
6:40 PM 28.4 °F - 26.6 °F 93% 29.92 in 1.0 mi Calm Calm - N/A   Overcast
7:00 PM 26.6 °F - 26.6 °F 100% 29.92 in 0.5 mi Calm Calm - N/A Fog Light Freezing Fog
7:20 PM 26.6 °F - 26.6 °F 100% 29.92 in 0.8 mi Calm Calm - N/A   Overcast
7:41 PM 26.6 °F 22.6 °F 26.6 °F 100% 29.90 in 0.2 mi ESE 3.5 mph - N/A Fog Light Freezing Fog
8:00 PM 26.6 °F - 26.6 °F 100% 29.92 in 0.2 mi Calm Calm - N/A Fog Light Freezing Fog
8:20 PM 26.6 °F - 26.6 °F 100% 29.95 in 0.2 mi Calm Calm - N/A Fog Light Freezing Fog
8:43 PM 26.6 °F 21.2 °F 26.6 °F 100% 29.93 in 0.2 mi ESE 4.6 mph - N/A Fog Light Freezing Fog
9:00 PM 26.6 °F - 26.6 °F 100% 29.93 in 0.2 mi Calm Calm - N/A Fog Light Freezing Fog
9:20 PM 26.6 °F - 26.6 °F 100% 29.93 in 0.2 mi Calm Calm - N/A Fog Light Freezing Fog
9:40 PM 26.6 °F - 26.6 °F 100% 29.91 in 0.2 mi Calm Calm - N/A Fog Light Freezing Fog
10:00 PM 26.6 °F - 26.6 °F 100% 29.91 in 0.2 mi Calm Calm - N/A Fog Light Freezing Fog
10:20 PM 26.6 °F 22.6 °F 26.6 °F 100% 29.88 in 0.2 mi ESE 3.5 mph - N/A Fog Light Freezing Fog
10:40 PM 26.6 °F - 26.6 °F 100% 29.86 in 0.2 mi Calm Calm - N/A Fog Light Freezing Fog
11:00 PM 26.6 °F - 26.6 °F 100% 29.87 in 0.2 mi Calm Calm - N/A Fog Light Freezing Fog
11:20 PM 26.6 °F 19.1 °F 24.8 °F 93% 29.88 in 0.2 mi SSE 6.9 mph - N/A Fog Light Freezing Fog
11:40 PM 24.8 °F 19.1 °F 23.0 °F 93% 29.88 in 0.2 mi SE 4.6 mph - N/A Fog Light Freezing Fog